Regional Weather Roundup
Issued by NWS Jackson, KY

Home | Current Version | Previous Version | Graphics & Text | Print | Product List | Glossary On
Versions: 1 2 3 4 5 6 7 8 9 10 11 12 13 14 15 16 17 18 19 20 21 22 23 24 25 26 27 28 29 30 31 32 33 34 35 36 37 38 39 40 41 42 43 44 45 46 47 48 49 50
000
ASUS43 KJKL 251410
RWRJKL

EAST KENTUCKY HOURLY WEATHER ROUNDUP
NATIONAL WEATHER SERVICE JACKSON KY
1000 AM EDT MON MAY 25 2015

NOTE: "FAIR" INDICATES FEW OR NO CLOUDS BELOW 12,000 FEET WITH
NO SIGNIFICANT WEATHER AND/OR OBSTRUCTIONS TO VISIBILITY.

* THESE REPORTS ARE NOT UNDER NWS QUALITY CONTROL AND MAY NOT
  REPORT WEATHER SUCH AS PRECIPITATION AND FOG.

KYZ079-080-083-085-087-088-110-112-115-119-120-251500
...EASTERN KENTUCKY...

CITY           SKY/WX    TMP DP  RH WIND       PRES   REMARKS
JACKSON        SUNNY     71  56  58 VRB3      30.24R
LONDON         SUNNY     75  54  47 S13G21    30.23S
SOMERSET*      PTSUNNY   72  55  56 S13G18    30.22S
MONTICELLO*    PTSUNNY   75  61  62 S9G18     30.23S
MIDDLESBORO*   MOSUNNY   71  57  61 S5        30.27S
HARLAN APT*    SUNNY     72  54  53 CALM      30.28R
HAZARD APT*    SUNNY     75  55  50 SW9       30.24R
BLACK MTN*       N/A     63  54  72 SW9         N/A
PIKEVILLE APT* SUNNY     72  55  56 S7        30.25R
BIG SANDY*     MOSUNNY   74  55  52 S9        30.23S
MOREHEAD APT*  PTSUNNY   75  55  50 S10       30.22S
$$

KYZ035-036-041-042-044-050-067-078-099-251500
...CENTRAL KENTUCKY...

CITY           SKY/WX    TMP DP  RH WIND       PRES   REMARKS
MT STERLING*   MOSUNNY   73  59  60 SW9G17    30.20S
FLEMING/MASON* SUNNY     75  57  53 SW13      30.20R
DANVILLE*      PTSUNNY   73  57  56 S16G22    30.19S
RICHMOND*      PTSUNNY   75  55  50 S18G25    30.20R
LEXINGTON      PTSUNNY   76  58  53 S16       30.18S
FRANKFORT      CLOUDY    73  58  59 SW12      30.17R
$$

KYZ091>093-OHZ055-061-077-WVZ005-015-034-035-042-251500
...SOUTHERN OHIO/WEST VIRGINIA...

CITY           SKY/WX    TMP DP  RH WIND       PRES   REMARKS
COVINGTON      LGT RAIN  65  62  90 S15G23    30.16S FOG
COLUMBUS       CLOUDY    73  56  54 S10       30.15R
DAYTON         CLOUDY    73  60  63 SW30G37   30.12R
WILMINGTON     CLOUDY    72  56  57 SW22G33   30.14S
HUNTINGTON     PTSUNNY   74  56  53 S9        30.20S
CHARLESTON     PTSUNNY   75  55  49 S8        30.22S
PINEVILLE*     MOSUNNY   72  57  60 MISG      30.33F
BECKLEY        SUNNY     69  52  54 SE7       30.31S
BLUEFIELD      SUNNY     71  52  50 VRB5      30.34R
$$

VAZ002-007-008-TNZ017-027-036-066-071-251500
...SOUTHWEST VIRGINIA/EAST TENNESSEE...

CITY           SKY/WX    TMP DP  RH WIND       PRES   REMARKS
WISE*          SUNNY     70  52  52 S12       30.32S
JONESVILLE*    SUNNY     72  55  56 SE6       30.31R
ABINGDON*      SUNNY     71  55  55 CALM      30.32S
BRISTOL        MOSUNNY   74  55  51 SE6       30.29S
KNOXVILLE      MOSUNNY   75  55  49 S5        30.25S
OAK RIDGE        N/A     75  59  57 VRB3      30.28R
CROSSVILLE     SUNNY     70  58  65 S14G25    30.27S
NASHVILLE      LGT RAIN  66  64  94 S8        30.20S
$$

...KEY TO REMARKS...
VSB - VISIBILITY IN MILES
WCI - WIND CHILL INDEX
HX  - HEAT INDEX

$$



USA.gov is the U.S. government's official web portal to all federal, state and local government web resources and services.